Weather in Yasnogorskiy

Russia / Orenburg Oblast     52°34′05″N   54°01′55″E
temp.,
°C
wind,
m/s
gust,
m/s
humid.,
%
clouds,
%
prec.,
mm/h
press.,
hPa
HPBL,
m
28 february, sun
sun2823:000sw5998100 1.2 1000443
02:000sw5998100 0.4 998511
05:00−1sw5997100 1.3 998451
08:00−1sw4898100 1.1 998374
11:00−7wnw5795100 1.5 999240
14:00−8wnw579494 0.2 1002285
17:00−8wnw699495 0.4 1005400
20:00−10wnw5994100 0.1 1008300
1 march, mon
mon123:00−13wnw479799 0.2 1010164
02:00−13wnw3696100 0.2 1012161
05:00−15wnw359796 0.5 1014125
08:00−15wnw349795 0.2 1016120
11:00−14wnw349591 0.4 1018240
14:00−13wnw349397 0.1 1019330
17:00−13wnw359499 0.1 1020355
20:00−16wnw3597100 0.1 1021104
2 march, tue
tue223:00−20wnw3310094 0.1 102221
02:00−22w3310089 0.0 102223
05:00−24wsw2310077 0.0 102221
08:00−23ssw349963 0.0 102048
11:00−19ssw589771 0.0 1019234
14:00−15ssw71295100 0.0 1016346
17:00−12ssw81493100 0.1 1014436
20:00−10ssw81693100 0.4 1011605
3 march, wed
wed323:00−5ssw81495100 1.1 1008713
02:00−4ssw81395100 1.1 1005743
05:00−3ssw71395100 2.1 1002602
08:00−3ssw61196100 1.0 1001515
11:00−3sw589699 1.4 1000415
14:00−2w5695100 0.7 1001482
17:00−3wnw6994100 1.5 1002628
20:00−5wnw41096100 0.4 1003408
4 march, thu
thu423:00−6wnw499699 0.5 1005300
02:00−8wnw489698 0.1 1006219
05:00−8wnw489697 0.3 1008242
08:00−9nw599691 0.1 1010269
11:00−11nw499580 0.2 1012277
14:00−9nw599397 0.1 1014440
17:00−9wnw489398 0.1 1015406
20:00−12w349757 0.0 101756